Location: Home
(42.5358°N, 72.7383°W)
Time: 04:49:35
(UTC-05:00)

BlueWalker 3 - Visible Passes

Search period start: 29 November 2023 00:00
Search period end: 09 December 2023 00:00
Orbit: 489 x 504 km, 53.2° (Epoch: 28 November)

Date Brightness Start Highest point End Pass type
(mag) Time Alt. Az. Time Alt. Az. Time Alt. Az.
29 Nov 3.9 04:50:59 20° NNE 04:50:59 20° NNE 04:53:54 10° ENE visible
29 Nov 2.2 06:26:10 10° NW 06:29:58 62° NE 06:33:45 10° ESE visible
30 Nov 4.2 04:29:24 18° NE 04:29:24 18° NE 04:31:18 10° ENE visible
30 Nov 2.2 06:03:57 12° NW 06:07:23 61° NNE 06:11:10 10° ESE visible
01 Dec 4.8 04:07:49 14° NE 04:07:49 14° NE 04:08:42 10° ENE visible
01 Dec 2.2 05:42:23 21° NW 05:44:47 60° NNE 05:48:34 10° ESE visible
02 Dec 2.2 05:20:50 36° NNW 05:22:10 60° NNE 05:25:57 10° ESE visible
03 Dec 2.2 04:59:20 58° NNE 04:59:32 59° NNE 05:03:18 10° ESE visible
04 Dec 3.1 04:37:53 42° E 04:37:53 42° E 04:40:39 10° ESE visible
04 Dec 3.5 06:12:27 12° W 06:14:57 20° SW 06:17:49 10° S visible
05 Dec 4.3 04:16:28 22° ESE 04:16:28 22° ESE 04:17:59 10° ESE visible
05 Dec 3.5 05:51:03 18° WSW 05:52:17 21° SW 05:55:11 10° S visible
06 Dec 5.2 03:55:07 11° ESE 03:55:07 11° ESE 03:55:18 10° ESE visible
06 Dec 3.4 05:29:42 21° SW 05:29:42 21° SW 05:32:31 10° S visible
07 Dec 3.9 05:08:25 17° SSW 05:08:25 17° SSW 05:09:51 10° S visible
